This is the latest recevied weather packets stored in our database for station/object lu6fg. If no packets are shown the sender has not sent any weather packets the latest 10 day(s).
| Time | Temp. | Humidity | Pressure | Rain* | Wind** | Luminosity | Snow |
|---|---|---|---|---|---|---|---|
| 1778231173 | 6.67° C | 69% | 1007.3 hPa | 0 mm | - | - | - |
| 1778231111 | 6.67° C | 69% | 1007.4 hPa | 0 mm | - | - | - |
| 1778230991 | 6.67° C | 69% | 1007.2 hPa | 0 mm | - | - | - |
| 1778230931 | 6.67° C | 70% | 1007.1 hPa | 0 mm | - | - | - |
| 1778230812 | 6.67° C | 70% | 1007.3 hPa | 0 mm | - | - | - |
| 1778230691 | 6.67° C | 70% | 1007.4 hPa | 0 mm | - | - | - |
| 1778230331 | 6.67° C | 71% | 1007.1 hPa | 0 mm | - | - | - |
| 1778230031 | 6.67° C | 72% | 1007.2 hPa | 0 mm | - | - | - |
| 1778229971 | 6.67° C | 72% | 1007.3 hPa | 0 mm | - | - | - |
| 1778229791 | 6.67° C | 71% | 1007.3 hPa | 0 mm | - | - | - |
| 1778229431 | 6.67° C | 70% | 1007.1 hPa | 0 mm | - | - | - |
| 1778228891 | 7.22° C | 70% | 1007 hPa | 0 mm | - | - | - |
| 1778228232 | 6.67° C | 72% | 1007.2 hPa | 0 mm | - | - | - |
| 1778227931 | 6.67° C | 72% | 1007.2 hPa | 0 mm | - | - | - |
| 1778226671 | 7.78° C | 68% | 1007.1 hPa | 0 mm | - | - | - |
| 1778226251 | 7.22° C | 70% | 1007 hPa | 0 mm | - | - | - |
| 1778225973 | 7.22° C | 72% | 1007 hPa | 0 mm | - | - | - |
| 1778225792 | 7.22° C | 72% | 1007.1 hPa | 0 mm | - | - | - |
| 1778225711 | 7.22° C | 72% | 1007.2 hPa | 0 mm | - | - | - |
| 1778225252 | 7.22° C | 73% | 1007.3 hPa | 0 mm | - | - | - |
| 1778224871 | 7.78° C | 73% | 1007.4 hPa | 0 mm | - | - | - |
| 1778224652 | 7.78° C | 73% | 1007.4 hPa | 0 mm | - | - | - |
| 1778224271 | 7.78° C | 73% | 1007.7 hPa | 0 mm | - | - | - |
| 1778223873 | 7.78° C | 73% | 1007.6 hPa | 0 mm | - | - | - |
| 1778223731 | 7.78° C | 73% | 1007.6 hPa | 0 mm | - | - | - |
* Rain latest hour (hover to see other rain measurements)
** Current wind speed in m/s (hover to see current wind gust speed)